#timestamp,LO_Frequency,Hit,StdDev 
1624186815.5,286046998.8,N
1624186835.3,286046998.8,N
1624186855.1,286046998.4,N
1624186875.9,286047001.0,N
1624186895.7,286047000.2,N
1624186915.6,286047002.3,N
1624186935.4,286046999.8,N
1624186955.2,286047002.4,N
1624186975.1,286047000.6,N
1624186976.0,286047000.6,N
1624186995.8,286047000.9,N
1624187015.6,286047000.6,N
1624187035.5,286047000.0,N
1624187055.3,286047000.3,N
1624187075.2,286047000.1,N
1624187095.9,286047000.0,N
1624187115.7,286047000.2,N
1624187135.6,286047000.4,N
1624187155.4,286047000.3,N
1624187175.3,286046998.3,N
1624187195.1,286047001.2,N
1624187196.0,286047001.2,N
1624187215.8,286047001.0,N
1624187235.7,286046998.5,N
1624187255.5,286046998.4,N
1624187275.3,286046998.6,N
1624187295.2,286046999.0,N
1624187315.0,286046999.1,N
1624187315.9,286046999.1,N
1624187335.8,286046998.5,N
1624187355.6,286046998.5,N
1624187375.4,286047000.6,N
1624187395.3,286047001.1,N
1624187415.1,286047000.9,N
1624187435.8,286047000.5,N
1624187455.7,286047000.7,N
1624187475.5,286047000.4,N
1624187495.4,286047000.6,N
1624187515.2,286047001.0,N
1624187535.0,286047000.4,N
1624187535.9,286047000.4,N
1624187555.8,286047000.6,N
1624187575.6,286047001.0,N
1624187595.4,286047000.3,N
1624187615.3,286047000.5,N
1624187635.1,286047000.3,N
1624187655.9,286046998.5,N
1624187675.7,286047000.7,N
1624187695.5,286047000.7,N
1624187715.4,286046998.5,N
1624187735.2,286046998.9,N
1624187755.0,286046998.5,N
1624187755.9,286046998.5,N
1624187775.8,286047001.2,N
1624187795.6,286047000.4,N
1624187815.5,286047002.3,N
1624187835.3,286047002.5,N
1624187855.1,286047000.4,N
1624187875.9,286046999.0,N
1624187895.7,286046998.4,N
1624187915.5,286046999.5,N
1624187935.4,286046996.9,N
1624187955.2,286046996.6,N
1624187975.1,286046999.5,N
1624187976.0,286046999.5,N
1624187995.8,286046997.6,N
1624188015.6,286046997.4,N
1624188035.5,286046997.5,N
1624188055.3,286046995.2,Y
1624188075.1,286046997.9,P
1624188095.9,286046997.2,P
1624188115.7,286046997.1,N
1624188135.6,286046996.7,Y
1624188155.4,286046998.3,P
1624188175.2,286046999.4,P
1624188195.1,286046998.3,N
1624188196.0,286046998.3,Y
1624188215.8,286047000.5,P
1624188235.7,286047001.1,N
1624188255.5,286046999.7,N
1624188275.3,286047002.0,N
1624188295.2,286047001.9,N
1624188315.0,286047002.0,N
1624188315.9,286047002.0,N
1624188335.7,286047004.3,Y
1624188355.6,286047002.8,P
1624188375.4,286047001.5,N
1624188395.3,286047001.3,N
1624188415.1,286047003.9,Y
1624188416.0,286047003.9,P
1624188435.8,286047002.3,N
1624188455.7,286046999.9,N
1624188475.5,286047001.0,N
1624188495.4,286047002.8,N
1624188515.2,286047002.2,N
1624188535.0,286047001.7,N
1624188535.9,286047001.7,N
1624188555.8,286047001.6,N
1624188575.6,286047004.1,Y
1624188595.4,286047002.7,P
1624188615.3,286047002.2,P
1624188635.1,286047000.1,N
1624188655.9,286047000.7,N
1624188675.7,286046998.1,N
1624188695.5,286047002.3,N
1624188715.4,286047002.3,N
1624188735.2,286047002.0,N
1624188755.1,286047002.0,N
1624188756.0,286047002.0,N
1624188775.8,286047002.4,N
1624188795.6,286046999.8,N
1624188815.5,286046999.9,N
1624188835.3,286047001.9,N
1624188855.1,286047002.1,N
1624188875.9,286047001.9,N
1624188895.7,286047002.2,N
1624188915.6,286047002.1,N
1624188935.4,286047002.1,N
1624188955.2,286047001.6,N
1624188975.1,286047001.8,N
1624188976.0,286047001.8,N
1624188995.8,286047002.1,N
1624189015.7,286047001.6,N
1624189035.5,286047002.2,N
1624189055.3,286047001.9,N
1624189075.2,286047002.6,N
1624189095.0,286047001.5,N
1624189095.9,286047001.5,N
1624189115.7,286047001.5,N
1624189135.6,286047001.5,N
1624189155.4,286047001.6,N
1624189175.3,286047001.6,N
1624189195.1,286047002.2,N
1624189215.8,286047002.7,N
1624189235.7,286046999.8,N
1624189255.5,286047001.1,N
1624189275.8,286046998.5,N
1624189295.7,286046998.3,N
1624189315.5,286047000.5,N
1624189335.4,286047001.2,N
1624189355.2,286046998.4,N
1624189375.0,286046998.6,N
1624189375.9,286046998.6,N
1624189395.8,286046998.4,N
1624189415.6,286046998.6,N
1624189435.4,286046996.9,N
1624189455.3,286046997.7,N
1624189475.1,286046995.2,N
1624189495.9,286046997.5,N
1624189515.7,286046996.8,N
1624189535.5,286046997.5,N
1624189555.4,286046996.9,N
1624189575.2,286046996.6,N
1624189595.0,286046997.2,N
1624189595.9,286046997.2,N
1624189615.8,286046996.6,N
1624189635.6,286046997.2,N
1624189655.5,286046995.0,N
1624189675.3,286046998.0,N
1624189695.1,286046995.2,N
1624189715.9,286046996.2,N
1624189735.7,286046995.5,N
1624189755.5,286046995.4,N
1624189775.4,286046995.3,N
1624189795.2,286046995.8,N
1624189815.1,286046995.3,N
1624189816.0,286046995.3,Y
1624189835.8,286046996.6,P
1624189855.6,286046997.3,P
1624189875.5,286046996.6,P
1624189895.3,286046999.5,N
1624189915.2,286046999.3,N
1624189935.0,286046999.6,N
1624189935.9,286046999.6,N
1624189955.7,286046996.5,N
1624189975.6,286046997.1,N
1624189995.4,286046997.1,N
1624190015.3,286046997.8,N
1624190035.1,286046995.4,Y
1624190055.9,286046999.6,P
1624190075.7,286046996.7,P
1624190095.5,286046996.6,N
1624190115.4,286046996.9,N
1624190135.2,286046996.5,Y
1624190155.0,286046998.7,P
1624190156.0,286046998.7,N
1624190175.8,286046998.2,P
1624190195.6,286046998.6,N
1624190215.5,286046998.7,N
1624190235.3,286047000.0,N
1624190255.2,286047002.8,Y
1624190275.0,286047001.8,P
1624190275.9,286047001.8,N
1624190295.7,286047002.6,N
1624190315.6,286047004.3,N
1624190335.4,286047004.3,N
1624190355.3,286047003.7,N
1624190375.1,286047003.7,N
1624190395.8,286047003.1,N
